Weather History for Cut Bank, MT

Change the Weather History Date:

Friday, December 21, 2012

  Actual Average Record
Temperature  
Mean Temperature 20 °F 21 °F  
Max Temperature 36 °F 32 °F 57 °F (1954)
Min Temperature 4 °F 11 °F -33 °F (1990)
Degree Days  
Heating Degree Days 45 44  
Month to date heating degree days 798 890  
Since 1 July heating degree days 2938 3153  
Cooling Degree Days 0 0  
Month to date cooling degree days 0 0  
Year to date cooling degree days 210 162  
Moisture  
Dew Point 10 °F    
Average Humidity 72    
Maximum Humidity 91    
Minimum Humidity 52    
Precipitation  
Precipitation T in 0.01 in 0.22 in (1945)
Month to date precipitation 0.18 0.15  
Year to date precipitation 9.03 10.83  
Snow  
Snow 0.00 in - - ()
Snow Depth 0.00 in    
Sea Level Pressure  
Sea Level Pressure 29.99 in    
Wind  
Wind Speed 12 mph (North)    
Max Wind Speed 23 mph    
Max Gust Speed 26 mph    
Visibility 6 miles    
Events Snow    
T = Trace of Precipitation, MM = Missing Value Source: NWS Daily Summary

Daily Weather History Graph

Daily Weather History Graph

Search for Another Location

Airport:

Trip Planner

Search our weather history database for the weather conditions in past years. The results will help you decide how hot, cold, wet, or windy it might be!

Date:

Astronomy

Dec. 21, 2012 Rise Set
Actual Time 8:19 AM MST 4:36 PM MST
Civil Twilight 7:42 AM MST 5:13 PM MST
Nautical Twilight 7:02 AM MST 5:53 PM MST
Astronomical Twilight 6:23 AM MST 6:32 PM MST
Moon 12:44 PM MST (12/21) 1:49 AM MST (12/21)
Length of Visible Light 9h 31m
Length of Day
8h 17m
Waxing Gibbous, 65% of the Moon is Illuminated
Dec 21
Waxing Gibbous
Dec 28
Full
Jan 4
Last Quarter
Jan 11
New
Jan 18
First Quarter

Hourly Weather History & Observations

Time (MST) Temp. Windchill Dew Point Humidity Pressure Visibility Wind Dir Wind Speed Gust Speed Precip Events Conditions
12:56 AM 35.1 °F 26.4 °F 19.9 °F 54% 29.83 in 10.0 mi West 12.7 mph - N/A   Clear
1:56 AM 30.0 °F 26.5 °F 19.0 °F 64% 29.84 in 10.0 mi NW 3.5 mph - N/A   Clear
2:56 AM 26.1 °F - 17.1 °F 69% 29.85 in 10.0 mi Calm Calm - N/A   Clear
3:56 AM 32.0 °F - 19.0 °F 59% 29.85 in 10.0 mi Calm Calm - N/A   Clear
4:56 AM 30.9 °F 23.5 °F 21.0 °F 67% 29.86 in 10.0 mi WSW 8.1 mph - N/A   Clear
5:56 AM 28.0 °F 21.7 °F 21.0 °F 75% 29.89 in 10.0 mi WSW 5.8 mph - N/A   Clear
6:56 AM 28.9 °F 19.8 °F 23.0 °F 78% 29.89 in 10.0 mi WSW 10.4 mph - N/A   Clear
7:56 AM 30.9 °F 21.2 °F 25.0 °F 79% 29.90 in 10.0 mi SW 12.7 mph - N/A   Clear
8:56 AM 23.0 °F 18.4 °F 19.9 °F 88% 29.93 in 10.0 mi NE 3.5 mph - N/A   Clear
9:56 AM 35.1 °F - 28.0 °F 76% 29.92 in 10.0 mi Calm Calm - N/A   Clear
10:56 AM 34.0 °F 27.2 °F 27.0 °F 75% 29.95 in 10.0 mi NE 8.1 mph - N/A   Clear
11:56 AM 34.0 °F 27.2 °F 23.0 °F 64% 29.93 in 10.0 mi ENE 8.1 mph - N/A   Clear
12:56 PM 28.0 °F 18.1 °F 18.0 °F 66% 29.95 in 10.0 mi NE 11.5 mph - N/A   Scattered Clouds
1:56 PM 19.0 °F 4.5 °F 12.0 °F 74% 30.00 in 9.0 mi North 16.1 mph - N/A   Clear
2:56 PM 12.9 °F -3.4 °F 8.1 °F 81% 30.04 in 7.0 mi North 16.1 mph - N/A   Clear
3:56 PM 9.0 °F -10.5 °F 6.1 °F 88% 30.06 in 7.0 mi North 20.7 mph - N/A   Partly Cloudy
4:56 PM 8.1 °F -9.6 °F 5.0 °F 87% 30.10 in 7.0 mi North 16.1 mph - N/A   Mostly Cloudy
5:30 PM 8.6 °F -9.5 °F 5.0 °F 85% 29.97 in 7.0 mi North 17.3 mph - 0.00 in Snow Light Snow
5:40 PM 8.6 °F -10.5 °F 5.0 °F 85% 29.97 in 6.0 mi North 19.6 mph - 0.00 in Snow Light Snow
5:56 PM 8.1 °F -11.2 °F 5.0 °F 87% 30.13 in 8.0 mi North 19.6 mph - 0.00 in   Overcast
6:04 PM 8.6 °F -11.0 °F 5.0 °F 85% 29.96 in 8.0 mi North 20.7 mph - N/A   Overcast
6:19 PM 8.6 °F -10.5 °F 3.2 °F 79% 29.97 in 6.0 mi North 19.6 mph - 0.00 in Snow Light Snow
6:44 PM 8.6 °F -11.0 °F 3.2 °F 79% 29.97 in 5.0 mi North 20.7 mph - 0.00 in   Overcast
6:56 PM 7.0 °F -12.6 °F 3.9 °F 87% 30.14 in 5.0 mi North 19.6 mph - 0.00 in Snow Light Snow
7:16 PM 6.8 °F -11.8 °F 3.2 °F 85% 29.98 in 3.0 mi North 17.3 mph - 0.00 in Snow Light Snow
7:56 PM 7.0 °F -12.6 °F 3.0 °F 84% 30.15 in 3.0 mi North 19.6 mph - 0.00 in Snow Light Snow
8:19 PM 6.8 °F -12.4 °F 3.2 °F 85% 29.99 in 2.5 mi North 18.4 mph - 0.00 in Snow Light Snow
8:30 PM 6.8 °F -12.4 °F 1.4 °F 79% 29.99 in 1.2 mi North 18.4 mph - 0.00 in Snow Light Snow
8:56 PM 6.1 °F -13.3 °F 1.9 °F 83% 30.17 in 1.0 mi North 18.4 mph - 0.00 in Snow Light Snow
9:56 PM 5.0 °F -13.6 °F 1.9 °F 87% 30.16 in 1.2 mi North 16.1 mph - 0.00 in Snow Light Snow
10:25 PM 5.0 °F -13.0 °F 1.4 °F 85% 30.01 in 1.5 mi North 15.0 mph - 0.00 in Snow Light Snow
10:56 PM 5.0 °F -13.0 °F 1.0 °F 84% 30.17 in 2.0 mi North 15.0 mph - 0.00 in Snow Light Snow
11:04 PM 5.0 °F -13.6 °F 1.4 °F 85% 30.02 in 1.8 mi North 16.1 mph - 0.00 in Snow Light Snow
11:13 PM 5.0 °F -14.2 °F 1.4 °F 85% 30.02 in 2.5 mi North 17.3 mph - 0.00 in Snow Light Snow
11:21 PM 5.0 °F -13.0 °F 1.4 °F 85% 30.02 in 3.0 mi North 15.0 mph - 0.00 in Snow Light Snow
11:56 PM 3.9 °F -14.3 °F -0.0 °F 84% 30.17 in 3.0 mi North 15.0 mph - 0.00 in Snow Light Snow